| time (UTC) | temp C | wind direction | speed KPH | gust KPH | rain 1hr cm | rain 24hr cm | rain mn cm | humidity % | barometer mb |
| 20260831030641 | 27 | 145 | 1.6 | 3.2 | 0.00 | 0.00 | 0.00 | 79 | 1017.7 |
| 20260831030141 | 27 | 135 | 1.6 | 4.8 | 0.00 | 0.00 | 0.00 | 79 | 1017.6 |
| 20260831025641 | 27 | 195 | 1.6 | 6.4 | 0.00 | 0.00 | 0.00 | 79 | 1017.6 |
| 20260831025141 | 27 | 178 | 1.6 | 6.4 | 0.00 | 0.00 | 0.00 | 79 | 1017.4 |
| 20260831024641 | 27 | 191 | 0.0 | 3.2 | 0.00 | 0.00 | 0.00 | 78 | 1017.5 |
| 20260831024141 | 27 | 191 | 0.0 | 1.6 | 0.00 | 0.00 | 0.00 | 78 | 1017.6 |
| 20260831023641 | 27 | 189 | 0.0 | 0.0 | 0.00 | 0.00 | 0.00 | 77 | 1017.5 |
| 20260831023141 | 27 | 189 | 0.0 | 0.0 | 0.00 | 0.00 | 0.00 | 77 | 1017.4 |
| 20260831022641 | 28 | 189 | 0.0 | 1.6 | 0.00 | 0.00 | 0.00 | 76 | 1017.3 |
| 20260831022141 | 28 | 189 | 1.6 | 3.2 | 0.00 | 0.00 | 0.00 | 76 | 1017.3 |
| 20260831021641 | 28 | 190 | 1.6 | 3.2 | 0.00 | 0.00 | 0.00 | 75 | 1017.3 |
| 20260831021141 | 28 | 183 | 0.0 | 4.8 | 0.00 | 0.00 | 0.00 | 75 | 1017.2 |
| 20260831020641 | 28 | 166 | 0.0 | 1.6 | 0.00 | 0.00 | 0.00 | 74 | 1017.1 |
| 20260831020141 | 28 | 166 | 0.0 | 3.2 | 0.00 | 0.00 | 0.00 | 73 | 1017.0 |
| 20260831015641 | 28 | 166 | 1.6 | 3.2 | 0.00 | 0.00 | 0.00 | 73 | 1016.9 |
| 20260831015141 | 28 | 164 | 1.6 | 4.8 | 0.00 | 0.00 | 0.00 | 73 | 1016.9 |
| 20260831014641 | 28 | 165 | 1.6 | 4.8 | 0.00 | 0.00 | 0.00 | 73 | 1016.9 |
| 20260831014141 | 28 | 172 | 1.6 | 3.2 | 0.00 | 0.00 | 0.00 | 73 | 1016.9 |
| 20260831013641 | 28 | 158 | 1.6 | 4.8 | 0.00 | 0.00 | 0.00 | 73 | 1016.9 |
| 20260831013141 | 29 | 165 | 1.6 | 3.2 | 0.00 | 0.00 | 0.00 | 72 | 1016.8 |
| 20260831012641 | 29 | 170 | 1.6 | 1.6 | 0.00 | 0.00 | 0.00 | 72 | 1016.8 |
| 20260831012141 | 29 | 167 | 1.6 | 4.8 | 0.00 | 0.00 | 0.00 | 72 | 1016.8 |
| 20260831011641 | 29 | 197 | 0.0 | 3.2 | 0.00 | 0.00 | 0.00 | 72 | 1016.7 |
| 20260831011141 | 29 | 203 | 0.0 | 1.6 | 0.00 | 0.00 | 0.00 | 71 | 1016.8 |
| 20260831010641 | 30 | 203 | 1.6 | 3.2 | 0.00 | 0.00 | 0.00 | 71 | 1016.8 |
| 20260831010141 | 30 | 205 | 1.6 | 3.2 | 0.00 | 0.00 | 0.00 | 70 | 1016.8 |
| 20260831005641 | 30 | 189 | 1.6 | 6.4 | 0.00 | 0.00 | 0.00 | 70 | 1016.8 |
| 20260831005141 | 30 | 181 | 1.6 | 3.2 | 0.00 | 0.00 | 0.00 | 70 | 1016.7 |
| 20260831004641 | 30 | 207 | 3.2 | 3.2 | 0.00 | 0.00 | 0.00 | 69 | 1016.7 |
| 20260831004141 | 30 | 174 | 3.2 | 4.8 | 0.00 | 0.00 | 0.00 | 69 | 1016.6 |
| 20260831003641 | 30 | 208 | 3.2 | 8.0 | 0.00 | 0.00 | 0.00 | 68 | 1016.7 |
| 20260831003141 | 30 | 207 | 3.2 | 6.4 | 0.00 | 0.00 | 0.00 | 68 | 1016.6 |
| 20260831002641 | 31 | 197 | 4.8 | 8.0 | 0.00 | 0.00 | 0.00 | 67 | 1016.5 |
| 20260831002141 | 31 | 219 | 4.8 | 9.7 | 0.00 | 0.00 | 0.00 | 67 | 1016.5 |
| 20260831001641 | 31 | 212 | 4.8 | 9.7 | 0.00 | 0.00 | 0.00 | 66 | 1016.6 |
| 20260831001141 | 31 | 176 | 4.8 | 11.3 | 0.00 | 0.00 | 0.00 | 66 | 1016.6 |
| 20260831000641 | 31 | 179 | 3.2 | 11.3 | 0.00 | 0.00 | 0.00 | 65 | 1016.8 |
| 20260831000141 | 31 | 215 | 4.8 | 8.0 | 0.00 | 0.00 | 0.00 | 65 | 1016.8 |
| 20260830235641 | 31 | 142 | 4.8 | 12.9 | 0.00 | 0.00 | 0.00 | 65 | 1016.7 |
| 20260830235141 | 32 | 217 | 4.8 | 8.0 | 0.00 | 0.00 | 0.00 | 64 | 1016.7 |
| 20260830234641 | 32 | 146 | 6.4 | 9.7 | 0.00 | 0.00 | 0.00 | 63 | 1016.8 |
| 20260830234141 | 32 | 176 | 6.4 | 12.9 | 0.00 | 0.00 | 0.00 | 63 | 1016.8 |
| 20260830233641 | 32 | 159 | 6.4 | 14.5 | 0.00 | 0.00 | 0.00 | 62 | 1016.8 |
| 20260830233141 | 32 | 219 | 6.4 | 12.9 | 0.00 | 0.00 | 0.00 | 63 | 1016.7 |
| 20260830232641 | 32 | 203 | 4.8 | 14.5 | 0.00 | 0.00 | 0.00 | 62 | 1016.7 |
| 20260830232141 | 32 | 198 | 4.8 | 9.7 | 0.00 | 0.00 | 0.00 | 62 | 1016.6 |
| 20260830231641 | 32 | 214 | 6.4 | 11.3 | 0.00 | 0.00 | 0.00 | 62 | 1016.6 |
| 20260830231141 | 32 | 207 | 8.0 | 11.3 | 0.00 | 0.00 | 0.00 | 61 | 1016.5 |
| 20260830230641 | 32 | 212 | 6.4 | 9.7 | 0.00 | 0.00 | 0.00 | 61 | 1016.6 |
| 20260830230141 | 33 | 184 | 6.4 | 11.3 | 0.00 | 0.00 | 0.00 | 61 | 1016.5 |
| 20260830225641 | 33 | 122 | 8.0 | 16.1 | 0.00 | 0.00 | 0.00 | 61 | 1016.6 |
| 20260830225141 | 33 | 235 | 6.4 | 17.7 | 0.00 | 0.00 | 0.00 | 60 | 1016.5 |
| 20260830224641 | 33 | 232 | 6.4 | 12.9 | 0.00 | 0.00 | 0.00 | 59 | 1016.5 |
| 20260830224141 | 33 | 88 | 8.0 | 11.3 | 0.00 | 0.00 | 0.00 | 58 | 1016.5 |
| 20260830223641 | 33 | 238 | 8.0 | 17.7 | 0.00 | 0.00 | 0.00 | 57 | 1016.5 |
| 20260830223141 | 33 | 214 | 6.4 | 11.3 | 0.00 | 0.00 | 0.00 | 58 | 1016.5 |
| 20260830222641 | 33 | 186 | 8.0 | 17.7 | 0.00 | 0.00 | 0.00 | 58 | 1016.5 |
| 20260830222141 | 33 | 182 | 9.7 | 14.5 | 0.00 | 0.00 | 0.00 | 58 | 1016.5 |
| 20260830221641 | 34 | 214 | 8.0 | 16.1 | 0.00 | 0.00 | 0.00 | 59 | 1016.5 |
| 20260830221141 | 34 | 172 | 6.4 | 14.5 | 0.00 | 0.00 | 0.00 | 57 | 1016.5 |
| 20260830220641 | 35 | 146 | 6.4 | 11.3 | 0.00 | 0.00 | 0.00 | 58 | 1016.6 |
| 20260830220141 | 35 | 194 | 6.4 | 12.9 | 0.00 | 0.00 | 0.00 | 57 | 1016.6 |
| 20260830215641 | 35 | 105 | 6.4 | 11.3 | 0.00 | 0.00 | 0.00 | 56 | 1016.6 |
| 20260830215141 | 35 | 177 | 6.4 | 16.1 | 0.00 | 0.00 | 0.00 | 55 | 1016.6 |
| 20260830214641 | 35 | 219 | 8.0 | 17.7 | 0.00 | 0.00 | 0.00 | 56 | 1016.7 |
| 20260830214141 | 35 | 205 | 8.0 | 16.1 | 0.00 | 0.00 | 0.00 | 56 | 1016.5 |
| 20260830213641 | 35 | 198 | 6.4 | 14.5 | 0.00 | 0.00 | 0.00 | 56 | 1016.6 |
| 20260830213141 | 35 | 247 | 6.4 | 11.3 | 0.00 | 0.00 | 0.00 | 55 | 1016.6 |
| 20260830212641 | 34 | 231 | 9.7 | 14.5 | 0.00 | 0.00 | 0.00 | 57 | 1016.7 |
| 20260830212141 | 34 | 205 | 9.7 | 17.7 | 0.00 | 0.00 | 0.00 | 57 | 1016.7 |
| 20260830211641 | 34 | 193 | 8.0 | 19.3 | 0.00 | 0.00 | 0.00 | 57 | 1016.8 |
| 20260830211141 | 34 | 235 | 8.0 | 17.7 | 0.00 | 0.00 | 0.00 | 57 | 1016.8 |
| 20260830210641 | 34 | 207 | 9.7 | 17.7 | 0.00 | 0.00 | 0.00 | 57 | 1016.9 |
| 20260830210141 | 35 | 229 | 8.0 | 14.5 | 0.00 | 0.00 | 0.00 | 57 | 1016.9 |
| 20260830205641 | 34 | 192 | 8.0 | 19.3 | 0.00 | 0.00 | 0.00 | 58 | 1016.9 |
| 20260830205141 | 34 | 207 | 9.7 | 19.3 | 0.00 | 0.00 | 0.00 | 58 | 1016.9 |
| 20260830204641 | 34 | 195 | 9.7 | 19.3 | 0.00 | 0.00 | 0.00 | 58 | 1017.0 |
| 20260830204141 | 35 | 210 | 8.0 | 24.1 | 0.00 | 0.00 | 0.00 | 57 | 1017.1 |
| 20260830203641 | 35 | 245 | 8.0 | 12.9 | 0.00 | 0.00 | 0.00 | 57 | 1017.2 |
| 20260830203141 | 34 | 151 | 8.0 | 14.5 | 0.00 | 0.00 | 0.00 | 58 | 1017.2 |
| 20260830202641 | 33 | 192 | 6.4 | 16.1 | 0.00 | 0.00 | 0.00 | 61 | 1017.4 |
| 20260830202141 | 33 | 205 | 8.0 | 17.7 | 0.00 | 0.00 | 0.00 | 59 | 1017.4 |
| 20260830201641 | 33 | 231 | 6.4 | 16.1 | 0.00 | 0.00 | 0.00 | 59 | 1017.4 |
| 20260830201141 | 33 | 199 | 4.8 | 17.7 | 0.00 | 0.00 | 0.00 | 59 | 1017.5 |
| 20260830200641 | 34 | 205 | 4.8 | 6.4 | 0.00 | 0.00 | 0.00 | 58 | 1017.6 |
| 20260830200141 | 34 | 213 | 6.4 | 12.9 | 0.00 | 0.00 | 0.00 | 58 | 1017.7 |
| 20260830195641 | 35 | 200 | 8.0 | 16.1 | 0.00 | 0.00 | 0.00 | 57 | 1017.6 |
| 20260830195141 | 35 | 210 | 8.0 | 16.1 | 0.00 | 0.00 | 0.00 | 58 | 1017.7 |
| 20260830194641 | 35 | 210 | 6.4 | 16.1 | 0.00 | 0.00 | 0.00 | 58 | 1017.6 |
| 20260830194141 | 34 | 158 | 6.4 | 14.5 | 0.00 | 0.00 | 0.00 | 58 | 1017.7 |
| 20260830193641 | 35 | 127 | 6.4 | 14.5 | 0.00 | 0.00 | 0.00 | 57 | 1017.7 |
| 20260830193141 | 34 | 242 | 6.4 | 12.9 | 0.00 | 0.00 | 0.00 | 60 | 1017.8 |
| 20260830192641 | 33 | 172 | 4.8 | 14.5 | 0.00 | 0.00 | 0.00 | 60 | 1017.7 |
| 20260830192141 | 33 | 46 | 4.8 | 11.3 | 0.00 | 0.00 | 0.00 | 61 | 1018.0 |
| 20260830191641 | 33 | 172 | 4.8 | 9.7 | 0.00 | 0.00 | 0.00 | 62 | 1017.9 |
| 20260830191142 | 33 | 134 | 6.4 | 12.9 | 0.00 | 0.00 | 0.00 | 61 | 1018.1 |
| 20260830190641 | 35 | 203 | 6.4 | 12.9 | 0.00 | 0.00 | 0.00 | 58 | 1018.2 |
| 20260830190142 | 35 | 244 | 6.4 | 14.5 | 0.00 | 0.00 | 0.00 | 58 | 1018.0 |
| 20260830185641 | 34 | 124 | 4.8 | 9.7 | 0.00 | 0.00 | 0.00 | 60 | 1018.1 |
| 20260830185142 | 34 | 50 | 6.4 | 9.7 | 0.00 | 0.00 | 0.00 | 61 | 1018.1 |
| 20260830184642 | 34 | 257 | 6.4 | 12.9 | 0.00 | 0.00 | 0.00 | 61 | 1018.3 |
| 20260830184142 | 34 | 135 | 4.8 | 14.5 | 0.00 | 0.00 | 0.00 | 62 | 1018.3 |
| 20260830183642 | 33 | 249 | 4.8 | 11.3 | 0.00 | 0.00 | 0.00 | 62 | 1018.3 |
| 20260830183142 | 34 | 144 | 8.0 | 9.7 | 0.00 | 0.00 | 0.00 | 60 | 1018.3 |
| 20260830182642 | 34 | 216 | 8.0 | 16.1 | 0.00 | 0.00 | 0.00 | 60 | 1018.3 |
| 20260830182142 | 33 | 202 | 6.4 | 9.7 | 0.00 | 0.00 | 0.00 | 61 | 1018.3 |
| 20260830181642 | 32 | 229 | 6.4 | 12.9 | 0.00 | 0.00 | 0.00 | 65 | 1018.5 |
| 20260830181142 | 32 | 91 | 4.8 | 12.9 | 0.00 | 0.00 | 0.00 | 64 | 1018.4 |
| 20260830180642 | 32 | 196 | 6.4 | 8.0 | 0.00 | 0.00 | 0.00 | 65 | 1018.5 |
| 20260830180142 | 33 | 215 | 6.4 | 17.7 | 0.00 | 0.00 | 0.00 | 63 | 1018.6 |
| 20260830175642 | 33 | 205 | 6.4 | 17.7 | 0.00 | 0.00 | 0.00 | 63 | 1018.6 |
| 20260830175142 | 33 | 174 | 6.4 | 12.9 | 0.00 | 0.00 | 0.00 | 62 | 1018.6 |
| 20260830174642 | 33 | 202 | 8.0 | 14.5 | 0.00 | 0.00 | 0.00 | 64 | 1018.7 |
| 20260830174142 | 33 | 180 | 6.4 | 16.1 | 0.00 | 0.00 | 0.00 | 63 | 1018.7 |
| 20260830173642 | 32 | 83 | 4.8 | 16.1 | 0.00 | 0.00 | 0.00 | 66 | 1018.6 |
| 20260830173142 | 32 | 214 | 6.4 | 11.3 | 0.00 | 0.00 | 0.00 | 66 | 1018.8 |
| 20260830172642 | 32 | 207 | 8.0 | 12.9 | 0.00 | 0.00 | 0.00 | 66 | 1018.8 |
| 20260830172142 | 33 | 149 | 6.4 | 12.9 | 0.00 | 0.00 | 0.00 | 66 | 1018.8 |
| 20260830171642 | 32 | 205 | 6.4 | 17.7 | 0.00 | 0.00 | 0.00 | 67 | 1019.0 |
| 20260830171142 | 32 | 240 | 6.4 | 12.9 | 0.00 | 0.00 | 0.00 | 68 | 1019.0 |
| 20260830170642 | 32 | 221 | 6.4 | 11.3 | 0.00 | 0.00 | 0.00 | 69 | 1019.1 |
| 20260830170142 | 32 | 225 | 6.4 | 16.1 | 0.00 | 0.00 | 0.00 | 69 | 1019.2 |
| 20260830165642 | 32 | 255 | 8.0 | 19.3 | 0.00 | 0.00 | 0.00 | 70 | 1019.3 |
| 20260830165142 | 32 | 217 | 8.0 | 16.1 | 0.00 | 0.00 | 0.00 | 69 | 1019.2 |
| 20260830164642 | 32 | 140 | 8.0 | 20.9 | 0.00 | 0.00 | 0.00 | 68 | 1019.4 |
| 20260830164142 | 32 | 181 | 9.7 | 19.3 | 0.00 | 0.00 | 0.00 | 69 | 1019.4 |
| 20260830163642 | 32 | 195 | 9.7 | 20.9 | 0.00 | 0.00 | 0.00 | 70 | 1019.6 |
| 20260830163142 | 32 | 176 | 8.0 | 19.3 | 0.00 | 0.00 | 0.00 | 71 | 1019.6 |
| 20260830162642 | 32 | 248 | 8.0 | 19.3 | 0.00 | 0.00 | 0.00 | 71 | 1019.5 |
| 20260830162142 | 31 | 255 | 6.4 | 12.9 | 0.00 | 0.00 | 0.00 | 73 | 1019.5 |
| 20260830161642 | 31 | 222 | 6.4 | 14.5 | 0.00 | 0.00 | 0.00 | 73 | 1019.5 |
| 20260830161142 | 31 | 240 | 9.7 | 16.1 | 0.00 | 0.00 | 0.00 | 73 | 1019.6 |
| 20260830160642 | 31 | 250 | 9.7 | 17.7 | 0.00 | 0.00 | 0.00 | 73 | 1019.5 |
| 20260830160142 | 31 | 255 | 8.0 | 12.9 | 0.00 | 0.00 | 0.00 | 74 | 1019.5 |
| 20260830155642 | 31 | 196 | 8.0 | 16.1 | 0.00 | 0.00 | 0.00 | 72 | 1019.6 |
| 20260830155142 | 31 | 166 | 6.4 | 14.5 | 0.00 | 0.00 | 0.00 | 73 | 1019.5 |
| 20260830154642 | 31 | 220 | 6.4 | 11.3 | 0.00 | 0.00 | 0.00 | 73 | 1019.5 |
| 20260830154142 | 30 | 161 | 8.0 | 16.1 | 0.00 | 0.00 | 0.00 | 74 | 1019.5 |
| 20260830153642 | 30 | 244 | 6.4 | 14.5 | 0.00 | 0.00 | 0.00 | 74 | 1019.5 |
| 20260830153142 | 30 | 253 | 6.4 | 9.7 | 0.00 | 0.00 | 0.00 | 75 | 1019.5 |
| 20260830152642 | 30 | 250 | 6.4 | 12.9 | 0.00 | 0.00 | 0.00 | 75 | 1019.6 |
| 20260830152142 | 30 | 153 | 6.4 | 11.3 | 0.00 | 0.00 | 0.00 | 75 | 1019.6 |
| 20260830151642 | 30 | 243 | 6.4 | 12.9 | 0.00 | 0.00 | 0.00 | 76 | 1019.7 |
| 20260830151142 | 30 | 260 | 6.4 | 12.9 | 0.00 | 0.00 | 0.00 | 76 | 1019.5 |
| 20260830150642 | 30 | 203 | 6.4 | 12.9 | 0.00 | 0.00 | 0.00 | 77 | 1019.6 |
| 20260830150142 | 29 | 231 | 6.4 | 14.5 | 0.00 | 0.00 | 0.00 | 77 | 1019.5 |
| 20260830145642 | 29 | 243 | 6.4 | 11.3 | 0.00 | 0.00 | 0.00 | 78 | 1019.5 |
| 20260830145142 | 29 | 214 | 6.4 | 12.9 | 0.00 | 0.00 | 0.00 | 79 | 1019.5 |
| 20260830144642 | 29 | 226 | 4.8 | 12.9 | 0.00 | 0.00 | 0.00 | 79 | 1019.6 |
| 20260830144142 | 28 | 241 | 4.8 | 9.7 | 0.00 | 0.00 | 0.00 | 80 | 1019.7 |
| 20260830143642 | 28 | 205 | 4.8 | 9.7 | 0.00 | 0.00 | 0.00 | 81 | 1019.7 |
| 20260830143142 | 28 | 204 | 4.8 | 9.7 | 0.00 | 0.00 | 0.00 | 81 | 1019.8 |
| 20260830142642 | 28 | 244 | 4.8 | 11.3 | 0.00 | 0.00 | 0.00 | 82 | 1019.8 |
| 20260830142142 | 28 | 243 | 4.8 | 11.3 | 0.00 | 0.00 | 0.00 | 82 | 1019.8 |
| 20260830141642 | 28 | 247 | 3.2 | 8.0 | 0.00 | 0.00 | 0.00 | 82 | 1019.8 |
| 20260830141142 | 27 | 264 | 3.2 | 6.4 | 0.00 | 0.00 | 0.00 | 84 | 1019.6 |
| 20260830140642 | 27 | 255 | 3.2 | 9.7 | 0.00 | 0.00 | 0.00 | 84 | 1019.7 |
| 20260830140142 | 27 | 199 | 4.8 | 9.7 | 0.00 | 0.00 | 0.00 | 86 | 1019.6 |
| 20260830135642 | 26 | 244 | 6.4 | 9.7 | 0.00 | 0.00 | 0.00 | 86 | 1019.5 |
| 20260830135142 | 26 | 230 | 6.4 | 11.3 | 0.00 | 0.00 | 0.00 | 87 | 1019.5 |
| 20260830134642 | 26 | 210 | 4.8 | 9.7 | 0.00 | 0.00 | 0.00 | 88 | 1019.6 |
| 20260830134142 | 26 | 246 | 4.8 | 9.7 | 0.00 | 0.00 | 0.00 | 89 | 1019.5 |
| 20260830133642 | 26 | 236 | 4.8 | 11.3 | 0.00 | 0.00 | 0.00 | 89 | 1019.5 |
| 20260830133142 | 25 | 214 | 4.8 | 8.0 | 0.00 | 0.00 | 0.00 | 90 | 1019.5 |
| 20260830132642 | 25 | 168 | 4.8 | 8.0 | 0.00 | 0.00 | 0.00 | 90 | 1019.5 |
| 20260830132142 | 25 | 208 | 3.2 | 6.4 | 0.00 | 0.00 | 0.00 | 91 | 1019.4 |
| 20260830131642 | 24 | 196 | 3.2 | 8.0 | 0.00 | 0.00 | 0.00 | 91 | 1019.4 |
| 20260830131142 | 24 | 199 | 3.2 | 6.4 | 0.00 | 0.00 | 0.00 | 92 | 1019.4 |
| 20260830130642 | 23 | 204 | 3.2 | 8.0 | 0.00 | 0.00 | 0.00 | 92 | 1019.4 |
| 20260830130142 | 23 | 165 | 3.2 | 4.8 | 0.00 | 0.00 | 0.00 | 93 | 1019.5 |
| 20260830125642 | 23 | 201 | 3.2 | 6.4 | 0.00 | 0.00 | 0.00 | 93 | 1019.4 |
| 20260830125142 | 23 | 172 | 3.2 | 6.4 | 0.00 | 0.00 | 0.00 | 93 | 1019.3 |
| 20260830124642 | 22 | 197 | 3.2 | 6.4 | 0.00 | 0.00 | 0.00 | 93 | 1019.3 |
| 20260830124142 | 22 | 184 | 1.6 | 6.4 | 0.00 | 0.00 | 0.00 | 93 | 1019.2 |
| 20260830123642 | 22 | 185 | 1.6 | 3.2 | 0.00 | 0.00 | 0.00 | 94 | 1019.2 |
| 20260830123142 | 22 | 186 | 1.6 | 6.4 | 0.00 | 0.00 | 0.00 | 94 | 1019.2 |
| 20260830122642 | 22 | 187 | 1.6 | 4.8 | 0.00 | 0.00 | 0.00 | 94 | 1019.3 |
| 20260830122142 | 22 | 172 | 1.6 | 3.2 | 0.00 | 0.00 | 0.00 | 94 | 1019.1 |
| 20260830121642 | 22 | 167 | 1.6 | 4.8 | 0.00 | 0.00 | 0.00 | 94 | 1019.0 |
| 20260830121142 | 22 | 160 | 1.6 | 6.4 | 0.00 | 0.00 | 0.00 | 94 | 1019.1 |
| 20260830120642 | 22 | 179 | 1.6 | 4.8 | 0.00 | 0.00 | 0.00 | 94 | 1019.1 |
| 20260830120142 | 22 | 164 | 3.2 | 6.4 | 0.00 | 0.00 | 0.00 | 93 | 1019.0 |
| 20260830115642 | 22 | 178 | 1.6 | 8.0 | 0.00 | 0.00 | 0.00 | 93 | 1018.8 |
| 20260830115142 | 22 | 172 | 0.0 | 4.8 | 0.00 | 0.00 | 0.00 | 93 | 1018.7 |
| 20260830114642 | 22 | 189 | 0.0 | 0.0 | 0.00 | 0.00 | 0.00 | 92 | 1018.5 |
| 20260830114142 | 22 | 189 | 0.0 | 0.0 | 0.00 | 0.00 | 0.00 | 90 | 1018.5 |
| 20260830113642 | 22 | 189 | 0.0 | 0.0 | 0.00 | 0.00 | 0.00 | 92 | 1018.4 |
| 20260830113142 | 22 | 189 | 0.0 | 0.0 | 0.00 | 0.00 | 0.00 | 93 | 1018.4 |
| 20260830112642 | 22 | 167 | 0.0 | 0.0 | 0.00 | 0.00 | 0.00 | 92 | 1018.2 |
| 20260830112142 | 22 | 178 | 1.6 | 4.8 | 0.00 | 0.00 | 0.00 | 92 | 1018.3 |
| 20260830111642 | 22 | 165 | 1.6 | 4.8 | 0.00 | 0.00 | 0.00 | 93 | 1018.2 |
| 20260830111142 | 22 | 195 | 1.6 | 3.2 | 0.00 | 0.00 | 0.00 | 92 | 1018.1 |
| 20260830110642 | 22 | 174 | 1.6 | 4.8 | 0.00 | 0.00 | 0.00 | 92 | 1018.1 |
| 20260830110142 | 22 | 173 | 1.6 | 3.2 | 0.00 | 0.00 | 0.00 | 92 | 1018.2 |
| 20260830105642 | 22 | 178 | 0.0 | 1.6 | 0.00 | 0.00 | 0.00 | 91 | 1018.1 |
| 20260830105142 | 22 | 178 | 1.6 | 3.2 | 0.00 | 0.00 | 0.00 | 91 | 1018.1 |
| 20260830104642 | 22 | 176 | 1.6 | 4.8 | 0.00 | 0.00 | 0.00 | 91 | 1018.1 |
| 20260830104142 | 22 | 176 | 1.6 | 4.8 | 0.00 | 0.00 | 0.00 | 91 | 1018.0 |
| 20260830103642 | 22 | 182 | 1.6 | 4.8 | 0.00 | 0.00 | 0.00 | 91 | 1018.0 |
| 20260830103142 | 22 | 158 | 1.6 | 4.8 | 0.00 | 0.00 | 0.00 | 91 | 1017.9 |
| 20260830102642 | 22 | 189 | 1.6 | 3.2 | 0.00 | 0.00 | 0.00 | 91 | 1017.8 |
| 20260830102142 | 22 | 193 | 1.6 | 3.2 | 0.00 | 0.00 | 0.00 | 92 | 1017.7 |
| 20260830101642 | 22 | 195 | 0.0 | 3.2 | 0.00 | 0.00 | 0.00 | 91 | 1017.7 |
| 20260830101142 | 22 | 194 | 0.0 | 3.2 | 0.00 | 0.00 | 0.00 | 90 | 1017.6 |
| 20260830100642 | 22 | 194 | 1.6 | 3.2 | 0.00 | 0.00 | 0.00 | 90 | 1017.5 |
| 20260830100142 | 22 | 194 | 1.6 | 4.8 | 0.00 | 0.00 | 0.00 | 91 | 1017.6 |
| 20260830095642 | 22 | 166 | 1.6 | 6.4 | 0.00 | 0.00 | 0.00 | 90 | 1017.6 |
| 20260830095142 | 22 | 191 | 1.6 | 4.8 | 0.00 | 0.00 | 0.00 | 89 | 1017.7 |
| 20260830094642 | 22 | 214 | 1.6 | 4.8 | 0.00 | 0.00 | 0.00 | 90 | 1017.6 |
| 20260830094142 | 23 | 198 | 1.6 | 4.8 | 0.00 | 0.00 | 0.00 | 89 | 1017.6 |
| 20260830093642 | 23 | 172 | 1.6 | 4.8 | 0.00 | 0.00 | 0.00 | 89 | 1017.6 |
| 20260830093142 | 23 | 172 | 1.6 | 4.8 | 0.00 | 0.00 | 0.00 | 89 | 1017.7 |
| 20260830092642 | 22 | 174 | 1.6 | 6.4 | 0.00 | 0.00 | 0.00 | 89 | 1017.7 |
| 20260830092142 | 22 | 179 | 1.6 | 4.8 | 0.00 | 0.00 | 0.00 | 89 | 1017.6 |
| 20260830091642 | 22 | 163 | 1.6 | 4.8 | 0.00 | 0.00 | 0.00 | 88 | 1017.6 |
| 20260830091142 | 22 | 207 | 1.6 | 4.8 | 0.00 | 0.00 | 0.00 | 89 | 1017.6 |
| 20260830090642 | 22 | 198 | 0.0 | 3.2 | 0.00 | 0.00 | 0.00 | 89 | 1017.7 |
| 20260830090142 | 22 | 197 | 0.0 | 4.8 | 0.00 | 0.00 | 0.00 | 88 | 1017.6 |
| 20260830085642 | 22 | 192 | 0.0 | 4.8 | 0.00 | 0.00 | 0.00 | 88 | 1017.7 |
| 20260830085142 | 22 | 174 | 0.0 | 3.2 | 0.00 | 0.00 | 0.00 | 88 | 1017.5 |
| 20260830084642 | 22 | 173 | 0.0 | 1.6 | 0.00 | 0.00 | 0.00 | 88 | 1017.4 |
| 20260830084142 | 22 | 173 | 0.0 | 1.6 | 0.00 | 0.00 | 0.00 | 88 | 1017.6 |
| 20260830083642 | 22 | 173 | 0.0 | 1.6 | 0.00 | 0.00 | 0.00 | 86 | 1017.5 |
| 20260830083142 | 22 | 173 | 0.0 | 1.6 | 0.00 | 0.00 | 0.00 | 86 | 1017.5 |
| 20260830082642 | 22 | 173 | 0.0 | 1.6 | 0.00 | 0.00 | 0.00 | 86 | 1017.6 |
| 20260830082142 | 22 | 173 | 0.0 | 0.0 | 0.00 | 0.00 | 0.00 | 85 | 1017.6 |
| 20260830081642 | 22 | 173 | 0.0 | 3.2 | 0.00 | 0.00 | 0.00 | 84 | 1017.6 |
| 20260830081142 | 23 | 174 | 0.0 | 1.6 | 0.00 | 0.00 | 0.00 | 84 | 1017.6 |
| 20260830080642 | 23 | 174 | 0.0 | 1.6 | 0.00 | 0.00 | 0.00 | 84 | 1017.6 |
| 20260830080142 | 23 | 171 | 1.6 | 4.8 | 0.00 | 0.00 | 0.00 | 84 | 1017.7 |
| 20260830075642 | 23 | 188 | 1.6 | 4.8 | 0.00 | 0.00 | 0.00 | 84 | 1017.6 |
| 20260830075142 | 23 | 180 | 1.6 | 4.8 | 0.00 | 0.00 | 0.00 | 83 | 1017.6 |
| 20260830074642 | 23 | 174 | 1.6 | 4.8 | 0.00 | 0.00 | 0.00 | 83 | 1017.7 |
| 20260830074142 | 23 | 154 | 1.6 | 3.2 | 0.00 | 0.00 | 0.00 | 82 | 1017.7 |
| 20260830073642 | 23 | 158 | 1.6 | 4.8 | 0.00 | 0.00 | 0.00 | 82 | 1017.7 |
| 20260830073142 | 23 | 174 | 1.6 | 8.0 | 0.00 | 0.00 | 0.00 | 83 | 1017.7 |
| 20260830072642 | 23 | 131 | 1.6 | 6.4 | 0.00 | 0.00 | 0.00 | 82 | 1017.8 |
| 20260830072143 | 22 | 184 | 1.6 | 3.2 | 0.00 | 0.00 | 0.00 | 82 | 1017.9 |
| 20260830071643 | 22 | 177 | 1.6 | 3.2 | 0.00 | 0.00 | 0.00 | 82 | 1017.8 |
| 20260830071142 | 22 | 179 | 1.6 | 3.2 | 0.00 | 0.00 | 0.00 | 82 | 1017.8 |
| 20260830070643 | 23 | 177 | 0.0 | 3.2 | 0.00 | 0.00 | 0.00 | 82 | 1017.8 |
| 20260830070143 | 23 | 146 | 0.0 | 3.2 | 0.00 | 0.00 | 0.00 | 80 | 1017.6 |
| 20260830065643 | 23 | 146 | 0.0 | 3.2 | 0.00 | 0.00 | 0.00 | 81 | 1017.7 |
| 20260830065142 | 23 | 146 | 0.0 | 1.6 | 0.00 | 0.00 | 0.00 | 81 | 1017.7 |
| 20260830064642 | 23 | 146 | 0.0 | 3.2 | 0.00 | 0.00 | 0.00 | 80 | 1017.7 |
| 20260830064143 | 23 | 146 | 0.0 | 1.6 | 0.00 | 0.00 | 0.00 | 81 | 1017.7 |
| 20260830063642 | 23 | 146 | 0.0 | 3.2 | 0.00 | 0.00 | 0.00 | 80 | 1017.8 |
| 20260830063143 | 23 | 159 | 0.0 | 1.6 | 0.00 | 0.00 | 0.00 | 80 | 1017.7 |
| 20260830062643 | 23 | 159 | 0.0 | 3.2 | 0.00 | 0.00 | 0.00 | 80 | 1017.8 |
| 20260830062143 | 23 | 159 | 0.0 | 1.6 | 0.00 | 0.00 | 0.00 | 81 | 1017.8 |
| 20260830061643 | 23 | 159 | 0.0 | 1.6 | 0.00 | 0.00 | 0.00 | 80 | 1017.8 |
| 20260830061143 | 23 | 159 | 0.0 | 3.2 | 0.00 | 0.00 | 0.00 | 79 | 1017.8 |
| 20260830060643 | 23 | 159 | 0.0 | 1.6 | 0.00 | 0.00 | 0.00 | 79 | 1017.9 |
| 20260830060143 | 23 | 159 | 0.0 | 3.2 | 0.00 | 0.00 | 0.00 | 79 | 1017.9 |
| 20260830055643 | 23 | 167 | 0.0 | 3.2 | 0.00 | 0.00 | 0.00 | 79 | 1017.9 |
| 20260830055143 | 23 | 138 | 0.0 | 1.6 | 0.00 | 0.00 | 0.00 | 79 | 1017.9 |
| 20260830054643 | 23 | 138 | 0.0 | 3.2 | 0.00 | 0.00 | 0.00 | 79 | 1017.8 |
| 20260830054143 | 23 | 138 | 0.0 | 1.6 | 0.00 | 0.00 | 0.00 | 79 | 1017.7 |
| 20260830053643 | 23 | 134 | 0.0 | 3.2 | 0.00 | 0.00 | 0.00 | 79 | 1017.8 |
| 20260830053143 | 23 | 133 | 0.0 | 3.2 | 0.00 | 0.00 | 0.00 | 79 | 1017.8 |
| 20260830052643 | 23 | 139 | 0.0 | 3.2 | 0.00 | 0.00 | 0.00 | 80 | 1017.9 |
| 20260830052143 | 23 | 96 | 0.0 | 1.6 | 0.00 | 0.00 | 0.00 | 79 | 1017.9 |
| 20260830051643 | 23 | 96 | 0.0 | 1.6 | 0.00 | 0.00 | 0.00 | 79 | 1017.9 |
| 20260830051143 | 23 | 96 | 0.0 | 1.6 | 0.00 | 0.00 | 0.00 | 79 | 1017.9 |
| 20260830050643 | 23 | 96 | 0.0 | 1.6 | 0.00 | 0.00 | 0.00 | 80 | 1018.0 |
| 20260830050143 | 23 | 96 | 0.0 | 1.6 | 0.00 | 0.00 | 0.00 | 79 | 1018.0 |
| 20260830045643 | 23 | 96 | 0.0 | 3.2 | 0.00 | 0.00 | 0.00 | 79 | 1018.0 |
| 20260830045143 | 23 | 99 | 0.0 | 0.0 | 0.00 | 0.00 | 0.00 | 79 | 1018.1 |
| 20260830044643 | 23 | 99 | 0.0 | 1.6 | 0.00 | 0.00 | 0.00 | 79 | 1018.1 |
| 20260830044143 | 23 | 100 | 0.0 | 1.6 | 0.00 | 0.00 | 0.00 | 79 | 1018.0 |
| 20260830043643 | 23 | 101 | 0.0 | 1.6 | 0.00 | 0.00 | 0.00 | 78 | 1018.0 |
| 20260830043143 | 24 | 101 | 0.0 | 1.6 | 0.00 | 0.00 | 0.00 | 78 | 1017.9 |
| 20260830042643 | 24 | 101 | 0.0 | 3.2 | 0.00 | 0.00 | 0.00 | 76 | 1018.0 |
| 20260830042143 | 25 | 102 | 0.0 | 3.2 | 0.00 | 0.00 | 0.00 | 76 | 1017.9 |
| 20260830041643 | 25 | 101 | 0.0 | 1.6 | 0.00 | 0.00 | 0.00 | 75 | 1017.9 |
| 20260830041143 | 25 | 88 | 0.0 | 1.6 | 0.00 | 0.00 | 0.00 | 75 | 1017.8 |
| 20260830040643 | 25 | 86 | 0.0 | 1.6 | 0.00 | 0.00 | 0.00 | 75 | 1017.8 |
| 20260830040143 | 25 | 86 | 0.0 | 3.2 | 0.00 | 0.00 | 0.00 | 74 | 1017.8 |
| 20260830035643 | 25 | 83 | 1.6 | 4.8 | 0.00 | 0.00 | 0.00 | 75 | 1017.7 |
| 20260830035143 | 25 | 110 | 0.0 | 4.8 | 0.00 | 0.00 | 0.00 | 75 | 1017.8 |
| 20260830034643 | 24 | 151 | 0.0 | 0.0 | 0.00 | 0.00 | 0.00 | 77 | 1017.8 |
| 20260830034143 | 23 | 151 | 0.0 | 0.0 | 0.00 | 0.00 | 0.00 | 78 | 1017.7 |
| 20260830033643 | 23 | 152 | 0.0 | 0.0 | 0.00 | 0.00 | 0.00 | 78 | 1017.8 |
| 20260830033143 | 23 | 152 | 0.0 | 0.0 | 0.00 | 0.00 | 0.00 | 79 | 1017.7 |
| 20260830032643 | 24 | 152 | 0.0 | 0.0 | 0.00 | 0.00 | 0.00 | 79 | 1017.7 |
| 20260830032143 | 24 | 152 | 0.0 | 0.0 | 0.00 | 0.00 | 0.00 | 77 | 1017.8 |
| 20260830031643 | 25 | 152 | 0.0 | 0.0 | 0.00 | 0.00 | 0.00 | 73 | 1017.9 |
| 20260830031143 | 25 | 152 | 0.0 | 0.0 | 0.00 | 0.00 | 0.00 | 74 | 1017.8 |